EW5411 Weather Reports


Display with metric or nautical units.
time (UTC)temp
F
wind
direction
speed
MPH
gust
MPH
rain 1hr
in
rain 24hr
in
rain mn
in
humidity
%
barometer
mb
20210923171643 74 309 0.0 2.0 0.00 0.86 0.10 70 1006.5
20210923170030 72 211 0.0 4.0 0.00 0.86 0.10 68 1006.5
20210923164546 70 311 1.0 9.0 0.00 1.01 0.10 66 1006.4
20210923163035 71 355 1.0 5.0 0.00 1.01 0.10 63 1006.3
20210923161530 71 107 1.0 9.0 0.00 1.01 0.10 68 1006.3
20210923160043 70 279 2.0 8.0 0.00 1.01 0.10 67 1006.3
20210923154513 70 315 1.0 9.0 0.00 1.05 0.10 64 1006.2
20210923153028 69 252 1.0 9.0 0.00 1.05 0.10 68 1006.1
20210923151516 70 302 3.0 6.0 0.00 1.05 0.10 67 1006.1
20210923150006 69 78 0.0 4.0 0.00 1.05 0.10 68 1006.0
20210923143000 67 349 2.0 8.0 0.00 1.13 0.10 74 1005.7
20210923141625 68 330 2.0 6.0 0.00 1.13 0.10 80 1005.6
20210923140140 68 235 0.0 4.0 0.00 1.13 0.10 88 1005.5
20210923134604 66 144 0.0 0.0 0.00 1.27 0.10 90 1005.2
20210923133232 65 133 0.0 0.0 0.00 1.27 0.10 95 1005.0
20210923131635 64 133 0.0 2.0 0.00 1.27 0.10 96 1004.8
20210923130239 63 360 0.0 0.0 0.00 1.27 0.10 96 1004.7
20210923124617 61 5 0.0 0.0 0.00 1.43 0.10 96 1004.6
20210923123125 61 5 0.0 0.0 0.00 1.43 0.10 96 1004.4
20210923121637 60 5 0.0 0.0 0.00 1.43 0.10 97 1004.2
20210923120130 61 171 0.0 0.0 0.00 1.43 0.10 96 1004.4
20210923114630 62 101 0.0 0.0 0.00 1.79 0.10 96 1004.4
20210923113056 62 101 0.0 0.0 0.00 1.79 0.10 96 1004.4
20210923111609 62 101 0.0 0.0 0.00 1.79 0.10 96 1004.4
20210923110234 61 91 0.0 0.0 0.00 1.79 0.10 96 1004.0
20210923104604 62 92 0.0 0.0 0.00 1.83 0.10 96 1003.7
20210923103047 62 92 0.0 0.0 0.00 1.83 0.10 96 1003.5
20210923101550 62 92 0.0 0.0 0.00 1.83 0.10 96 1003.5
20210923100142 62 92 0.0 0.0 0.00 1.83 0.10 96 1003.6
20210923094543 62 92 0.0 0.0 0.00 1.84 0.10 96 1003.4
20210923093048 62 92 0.0 0.0 0.01 1.84 0.10 96 1002.9
20210923091551 62 92 0.0 0.0 0.01 1.84 0.10 96 1002.8
20210923090037 62 92 0.0 0.0 0.01 1.84 0.10 96 1002.8
20210923084545 62 92 0.0 0.0 0.02 1.84 0.10 96 1002.5
20210923083036 62 92 0.0 0.0 0.01 1.83 0.09 96 1002.6
20210923081536 62 92 0.0 0.0 0.01 1.83 0.09 96 1002.7
20210923080032 63 92 0.0 0.0 0.02 1.83 0.09 96 1002.6
20210923074555 63 92 0.0 0.0 0.01 1.86 0.08 96 1002.7
20210923073038 63 92 0.0 0.0 0.01 1.86 0.08 96 1002.7
20210923071542 64 155 0.0 0.0 0.01 1.86 0.08 96 1002.8
20210923070108 64 140 0.0 0.0 0.00 1.85 0.07 96 1002.9
20210923064525 64 140 0.0 0.0 0.01 1.85 0.07 96 1003.0
20210923063022 64 140 0.0 0.0 0.03 1.85 0.07 96 1003.1
20210923061614 64 291 0.0 0.0 0.04 1.85 0.07 96 1003.3
20210923060024 65 234 0.0 0.0 0.04 1.85 0.07 96 1003.5
20210923054517 65 292 0.0 0.0 0.05 1.86 0.06 96 1003.9
20210923053027 65 348 0.0 0.0 0.03 1.84 0.04 96 1003.3
20210923051604 66 348 0.0 0.0 0.02 1.83 0.03 96 1003.4
20210923050016 66 348 0.0 0.0 0.03 1.83 0.03 96 1003.8
20210923044511 66 348 0.0 0.0 0.02 1.93 0.01 96 1003.8
20210923043010 66 348 0.0 0.0 0.04 1.93 0.01 96 1003.6
20210923041516 66 350 0.0 0.0 0.11 1.93 0.01 95 1003.5
20210923040005 68 51 0.0 0.0 0.15 1.93 1.92 96 1003.5
20210923034504 69 227 0.0 2.0 0.15 1.92 1.91 96 1003.6
20210923033016 69 140 0.0 0.0 0.20 1.89 1.88 96 1003.6
20210923031504 69 154 0.0 0.0 0.48 1.81 1.80 96 1003.6
20210923030010 70 225 0.0 0.0 0.46 1.80 1.77 96 1003.6
20210923024504 70 148 0.0 5.0 0.50 1.79 1.76 96 1003.7
20210923023110 71 230 0.0 7.0 0.42 1.71 1.68 96 1003.7
20210923021626 71 171 0.0 5.0 0.06 1.35 1.32 96 1003.4
20210923020140 71 225 0.0 5.0 0.05 1.34 1.31 96 1003.7
20210923014701 71 200 0.0 9.0 0.00 1.29 1.26 95 1003.6
20210923013143 71 230 0.0 6.0 0.00 1.29 1.26 95 1003.7
20210923011742 71 212 0.0 9.0 0.00 1.29 1.26 95 1003.9
20210923010133 71 227 0.0 5.0 0.00 1.29 1.26 95 1003.8
20210923004651 71 207 0.0 4.0 0.00 1.29 1.26 95 1003.8
20210923003107 71 202 0.0 2.0 0.00 1.29 1.26 95 1003.9
20210923001641 71 199 0.0 4.0 0.00 1.29 1.26 96 1003.9
20210923000132 71 244 0.0 5.0 0.00 1.29 1.26 96 1003.8
20210922234742 71 197 0.0 7.0 0.00 1.29 1.26 95 1003.9
20210922233132 71 215 0.0 7.0 0.00 1.29 1.26 95 1003.9
20210922231611 71 214 0.0 9.0 0.00 1.29 1.26 95 1004.1
20210922230132 71 179 0.0 7.0 0.00 1.29 1.26 95 1004.0
20210922224615 71 177 0.0 8.0 0.00 1.29 1.26 95 1003.8
20210922223114 71 214 0.0 9.0 0.00 1.29 1.26 95 1003.8
20210922221547 71 216 2.0 9.0 0.01 1.29 1.26 96 1003.8
20210922220153 71 213 1.0 10.0 0.01 1.29 1.26 96 1003.8
20210922214554 71 174 2.0 14.0 0.01 1.29 1.26 96 1003.9
20210922213055 71 119 1.0 9.0 0.02 1.29 1.26 96 1004.1
20210922211607 71 200 0.0 5.0 0.01 1.28 1.25 95 1004.3
20210922210207 72 246 2.0 11.0 0.01 1.28 1.25 95 1004.5
20210922204556 73 259 3.0 11.0 0.01 1.28 1.25 95 1004.6
20210922203049 73 227 3.0 8.0 0.01 1.27 1.24 96 1004.5
20210922201541 73 197 0.0 8.0 0.01 1.27 1.24 96 1004.6
20210922200050 73 227 0.0 1.0 0.01 1.27 1.24 96 1004.6
20210922194626 73 212 0.0 3.0 0.03 1.27 1.24 96 1004.7
20210922193046 73 185 0.0 5.0 0.06 1.26 1.23 96 1004.9
20210922191603 73 203 0.0 3.0 0.06 1.26 1.23 96 1005.0
20210922190049 73 223 0.0 6.0 0.05 1.25 1.22 96 1005.4
20210922184524 73 199 1.0 7.0 0.04 1.24 1.21 96 1005.7
20210922183016 73 201 0.0 6.0 0.00 1.20 1.17 96 1005.9
20210922181537 73 201 1.0 11.0 0.01 1.20 1.17 96 1006.2
20210922180010 72 229 0.0 6.0 0.01 1.20 1.17 96 1006.2
20210922174515 72 198 0.0 7.0 0.02 1.20 1.17 96 1006.5
20210922173008 72 205 0.0 8.0 0.06 1.20 1.17 96 1006.8